sat.trackr.live / text

‹ back to catalog

STARLINK-34253

NORAD 64685 · 2025-139X

PAYLOAD ACTIVE UNKNOWN

§ Identity

Operator
Country
US
Launch date
2025-06-28
Launch site
AFETR
Launch vehicle
Mass (kg)
RCS (m²)

Purposes: comms

External: N2YO · Heavens-Above · Gunter

§ Orbital elements

Epoch: 2026-05-25T02:46:40.488096Z

Period
93.85 min
Inclination
53.1563°
Eccentricity
0.0001041
Mean motion
15.34395144 rev/d
Perigee alt
462.0 km
Apogee alt
463.4 km
Semi-major
6,840.9 km
B*
6.0208e-4
RAAN
131.4519°
Arg perigee
70.7011°
Mean anomaly
289.4104°
Rev number
5,199

§ Raw data

STARLINK-342531 64685U 25139X   26145.11574639  .00020017  00000+0  60208-3 0  99912 64685  53.1563 131.4519 0001041  70.7011 289.4104 15.34395144 51991

JSON: /api/v1/satellites/64685 · /tle

For live sub-satellite position, see the globe view (requires WebGL).

§ Visibility from observer

Set your observer location to see the next 7 days of passes ≥ 10°. The values pass through the URL so the page stays shareable.

No JS? Fill the form by hand. The geolocation button needs JavaScript.